Date String (YYYY-MM-DD hh:mm:ss) UTC,Instrument flags,Ambient pressure (hPa),Sample flow (lpm),Bypass flow (lpm),Sample temperature (°C),Ambient temperature (°C),ASC tube jacket temperature (°C),LED temperature (°C),Box temperature (°C),Sample RH (%),Span deviation,Mass concentration (μg/m³),Mass concentration (μg/m³),Mass concentration (μg/m³)
DateTimeUTC,F1_M11,P_M11,Q1_M11,Q2_M11,T1_M11,T2_M11,T3_M11,T4_M11,T5_M11,U1_M11,ZSPAN_M11,X0_M11,X2_M11,X1_M11
2021-12-09 13:00:00,,0814.0,5.00,0.00,22.7,22.0,00.0,31.7,24.5,15.0,0000.0,0002.79,0000.49,0000.26
2021-12-09 13:01:00,,0813.7,5.00,0.00,22.7,22.0,00.0,31.7,24.5,15.0,0000.0,0002.78,0000.47,0000.26
2021-12-09 13:02:00,,0814.1,5.00,0.00,22.7,21.9,00.0,31.7,24.5,15.2,0000.0,0002.80,0000.46,0000.26
2021-12-09 13:03:00,,0814.0,4.99,0.00,22.7,21.9,00.0,31.7,24.5,15.2,0000.0,0002.81,0000.46,0000.26
2021-12-09 13:04:00,,0814.1,5.02,0.00,22.7,21.9,00.0,31.7,24.5,15.1,0000.0,0001.73,0000.46,0000.26
2021-12-09 13:05:00,,0813.9,4.99,0.00,22.7,21.9,00.0,31.7,24.5,15.2,0000.0,0001.19,0000.47,0000.26
2021-12-09 13:06:00,,0813.9,5.00,0.00,22.6,21.9,00.0,31.7,24.4,15.0,0000.0,0001.16,0000.44,0000.26
2021-12-09 13:07:00,,0814.0,5.00,0.00,22.6,21.8,00.0,31.6,24.3,15.1,0000.0,0001.14,0000.43,0000.26
2021-12-09 13:08:00,,0814.2,5.00,0.00,22.6,21.8,00.0,31.6,24.3,15.2,0000.0,0001.25,0000.47,0000.26
2021-12-09 13:09:00,,0814.3,4.99,0.00,22.6,21.8,00.0,31.6,24.3,15.3,0000.0,0001.75,0000.53,0000.26
2021-12-09 13:10:00,,0814.2,5.00,0.00,22.6,21.8,00.0,31.6,24.3,15.3,0000.0,0002.10,0000.56,0000.26
2021-12-09 13:11:00,,0814.0,4.99,0.00,22.6,21.8,00.0,31.6,24.3,15.4,0000.0,0002.06,0000.57,0000.26
2021-12-09 13:12:00,,0813.9,5.01,0.00,22.6,21.8,00.0,31.6,24.3,15.4,0000.0,0002.25,0000.62,0000.27
2021-12-09 13:13:00,,0813.9,5.00,0.00,22.6,21.9,00.0,31.6,24.4,15.3,0000.0,0002.89,0000.62,0000.27
2021-12-09 13:14:00,,0813.9,5.00,0.00,22.6,21.9,00.0,31.6,24.4,15.2,0000.0,0003.06,0000.63,0000.26
2021-12-09 13:15:00,,0814.0,5.01,0.00,22.6,21.9,00.0,31.6,24.4,15.1,0000.0,0003.08,0000.64,0000.26
2021-12-09 13:16:00,,0814.1,4.99,0.00,22.6,21.9,00.0,31.6,24.4,15.0,0000.0,0003.01,0000.61,0000.27
2021-12-09 13:17:00,,0814.0,5.01,0.00,22.6,21.9,00.0,31.6,24.4,15.0,0000.0,0002.92,0000.59,0000.27
2021-12-09 13:18:00,,0813.7,5.00,0.00,22.6,21.9,00.0,31.6,24.4,15.0,0000.0,0002.89,0000.58,0000.27
2021-12-09 13:19:00,,0813.9,5.00,0.00,22.6,21.9,00.0,31.6,24.3,15.0,0000.0,0002.79,0000.54,0000.26
2021-12-09 13:20:00,,0814.1,5.00,0.00,22.6,21.9,00.0,31.6,24.3,15.0,0000.0,0002.40,0000.48,0000.26
2021-12-09 13:21:00,,0814.2,5.02,0.00,22.6,21.9,00.0,31.6,24.3,14.9,0000.0,0001.90,0000.44,0000.25
2021-12-09 13:22:00,,0813.9,4.99,0.00,22.6,21.9,00.0,31.6,24.3,14.7,0000.0,0001.98,0000.44,0000.25
2021-12-09 13:23:00,,0813.8,5.00,0.00,22.5,21.8,00.0,31.6,24.3,14.8,0000.0,0001.95,0000.41,0000.25
2021-12-09 13:24:00,,0814.0,5.01,0.00,22.5,21.8,00.0,31.6,24.3,15.1,0000.0,0001.32,0000.40,0000.25
2021-12-09 13:25:00,,0814.1,5.01,0.00,22.5,21.8,00.0,31.6,24.2,15.1,0000.0,0001.02,0000.40,0000.26
2021-12-09 13:26:00,,0814.3,4.99,0.00,22.5,21.8,00.0,31.6,24.2,15.1,0000.0,0001.07,0000.41,0000.26
2021-12-09 13:27:00,,0814.2,4.99,0.00,22.5,21.8,00.0,31.6,24.2,15.1,0000.0,0001.01,0000.41,0000.26
2021-12-09 13:28:00,,0814.1,5.00,0.00,22.5,21.8,00.0,31.6,24.2,15.1,0000.0,0000.99,0000.41,0000.26
2021-12-09 13:29:00,,0814.0,5.00,0.00,22.5,21.8,00.0,31.5,24.2,15.1,0000.0,0001.02,0000.42,0000.27
2021-12-09 13:30:00,,0814.1,5.01,0.00,22.5,21.8,00.0,31.5,24.2,15.2,0000.0,0001.04,0000.44,0000.27
2021-12-09 13:31:00,,0814.1,5.01,0.00,22.5,21.8,00.0,31.5,24.2,15.2,0000.0,0001.06,0000.44,0000.26
2021-12-09 13:32:00,,0814.2,5.01,0.00,22.5,21.7,00.0,31.5,24.2,15.3,0000.0,0001.09,0000.45,0000.26
2021-12-09 13:33:00,,0814.5,5.00,0.00,22.5,21.7,00.0,31.5,24.2,15.3,0000.0,0001.00,0000.45,0000.26
2021-12-09 13:34:00,,0814.2,4.99,0.00,22.4,21.7,00.0,31.5,24.2,15.4,0000.0,0000.91,0000.45,0000.26
2021-12-09 13:35:00,,0814.4,5.01,0.00,22.4,21.7,00.0,31.5,24.1,15.5,0000.0,0000.92,0000.46,0000.26
2021-12-09 13:36:00,,0814.3,5.00,0.00,22.4,21.6,00.0,31.5,24.1,15.6,0000.0,0001.03,0000.51,0000.26
2021-12-09 13:37:00,,0814.4,4.99,0.00,22.4,21.6,00.0,31.5,24.1,15.5,0000.0,0000.99,0000.49,0000.25
2021-12-09 13:38:00,,0814.5,5.00,0.00,22.4,21.6,00.0,31.5,24.1,15.6,0000.0,0000.97,0000.47,0000.25
2021-12-09 13:39:00,,0814.4,5.00,0.00,22.4,21.6,00.0,31.4,24.1,15.6,0000.0,0000.98,0000.47,0000.25
2021-12-09 13:40:00,,0814.3,5.01,0.00,22.4,21.7,00.0,31.4,24.1,15.6,0000.0,0001.10,0000.48,0000.25
2021-12-09 13:41:00,,0814.5,4.99,0.00,22.4,21.7,00.0,31.4,24.2,15.8,0000.0,0001.21,0000.47,0000.24
2021-12-09 13:42:00,,0814.5,5.00,0.00,22.4,21.7,00.0,31.4,24.2,15.9,0000.0,0001.35,0000.48,0000.24
2021-12-09 13:43:00,,0814.4,5.01,0.00,22.4,21.7,00.0,31.4,24.2,16.0,0000.0,0001.38,0000.48,0000.25
2021-12-09 13:44:00,,0814.6,4.99,0.00,22.4,21.8,00.0,31.4,24.2,15.9,0000.0,0001.46,0000.46,0000.25
2021-12-09 13:45:00,,0814.4,5.01,0.00,22.4,21.8,00.0,31.4,24.2,15.8,0000.0,0001.56,0000.43,0000.24
2021-12-09 13:46:00,,0814.4,5.00,0.00,22.4,21.8,00.0,31.4,24.2,15.9,0000.0,0001.65,0000.42,0000.24
2021-12-09 13:47:00,,0814.5,5.00,0.00,22.5,21.8,00.0,31.4,24.2,15.8,0000.0,0001.75,0000.39,0000.23
2021-12-09 13:48:00,,0814.5,5.00,0.00,22.5,21.8,00.0,31.4,24.2,15.8,0000.0,0002.24,0000.37,0000.23
2021-12-09 13:49:00,,0814.4,5.00,0.00,22.5,21.8,00.0,31.4,24.2,15.8,0000.0,0002.22,0000.39,0000.24
2021-12-09 13:50:00,,0814.3,4.99,0.00,22.5,21.8,00.0,31.4,24.2,15.8,0000.0,0002.29,0000.41,0000.24
2021-12-09 13:51:00,,0814.2,5.00,0.00,22.5,21.8,00.0,31.5,24.2,15.7,0000.0,0002.22,0000.41,0000.25
2021-12-09 13:52:00,,0814.2,5.02,0.00,22.4,21.8,00.0,31.5,24.1,15.7,0000.0,0002.09,0000.42,0000.27
2021-12-09 13:53:00,,0814.4,5.00,0.00,22.4,21.7,00.0,31.5,24.1,15.8,0000.0,0001.92,0000.41,0000.28
2021-12-09 13:54:00,,0814.2,4.99,0.00,22.4,21.7,00.0,31.4,24.1,15.9,0000.0,0001.83,0000.41,0000.28
2021-12-09 13:55:00,,0814.4,5.01,0.00,22.4,21.7,00.0,31.4,24.1,15.8,0000.0,0002.02,0000.45,0000.29
2021-12-09 13:56:00,,0814.2,4.99,0.00,22.4,21.7,00.0,31.4,24.1,15.7,0000.0,0002.05,0000.49,0000.31
2021-12-09 13:57:00,,0814.4,5.02,0.00,22.4,21.7,00.0,31.4,24.2,15.5,0000.0,0001.96,0000.52,0000.33
2021-12-09 13:58:00,,0814.5,5.00,0.00,22.4,21.7,00.0,31.4,24.2,15.5,0000.0,0001.82,0000.54,0000.35
2021-12-09 13:59:00,,0814.6,5.00,0.00,22.4,21.7,00.0,31.4,24.2,15.6,0000.0,0001.35,0000.56,0000.36
